Time,TemperatureF,DewpointF,PressureIn,WindDirection,WindDirectionDegrees,WindSpeedMPH,WindSpeedGustMPH,Humidity,HourlyPrecipIn,Conditions,Clouds,dailyrainin,SoftwareType,DateUTC
2013-02-21 07:12:00,16.3,12.6,30.23,ENE,59,15.0,15.0,85,0.00,,,0.00,Wunderground v.1.15,2013-02-21 13:12:00,
2013-02-21 07:18:00,16.2,12.2,30.23,NE,51,14.0,18.0,84,0.00,,,0.00,Wunderground v.1.15,2013-02-21 13:18:00,
2013-02-21 07:24:00,16.0,12.0,30.23,NE,55,16.0,16.0,84,0.00,,,0.00,Wunderground v.1.15,2013-02-21 13:24:00,
2013-02-21 07:29:00,16.0,12.0,30.23,NE,53,16.0,17.0,84,0.00,,,0.00,Wunderground v.1.15,2013-02-21 13:29:00,
2013-02-21 07:34:00,15.9,11.9,30.24,ENE,63,15.0,15.0,84,0.00,,,0.00,Wunderground v.1.15,2013-02-21 13:34:00,
2013-02-21 07:40:00,16.0,12.0,30.24,ENE,57,14.0,16.0,84,0.00,,,0.00,Wunderground v.1.15,2013-02-21 13:40:00,
2013-02-21 07:45:00,16.0,12.0,30.24,ENE,59,13.0,14.0,84,0.00,,,0.00,Wunderground v.1.15,2013-02-21 13:45:00,
2013-02-21 07:50:00,16.0,12.0,30.24,NE,51,12.0,15.0,84,0.00,,,0.00,Wunderground v.1.15,2013-02-21 13:50:00,
2013-02-21 07:56:00,15.9,11.9,30.23,NE,55,14.0,20.0,84,0.00,,,0.00,Wunderground v.1.15,2013-02-21 13:56:00,
2013-02-21 08:02:00,15.7,11.7,30.23,ENE,59,16.0,18.0,84,0.00,,,0.00,Wunderground v.1.15,2013-02-21 14:02:00,
2013-02-21 08:07:00,15.7,11.7,30.23,ENE,57,16.0,18.0,84,0.00,,,0.00,Wunderground v.1.15,2013-02-21 14:07:00,
2013-02-21 08:13:00,15.6,11.6,30.23,NNE,27,13.0,15.0,84,0.00,,,0.00,Wunderground v.1.15,2013-02-21 14:13:00,
2013-02-21 08:18:00,15.7,11.7,30.23,ENE,57,12.0,15.0,84,0.00,,,0.00,Wunderground v.1.15,2013-02-21 14:18:00,
2013-02-21 08:24:00,15.5,11.5,30.24,NE,51,12.0,14.0,84,0.00,,,0.00,Wunderground v.1.15,2013-02-21 14:24:00,
2013-02-21 08:29:00,15.6,11.6,30.23,NE,54,12.0,14.0,84,0.00,,,0.00,Wunderground v.1.15,2013-02-21 14:29:00,
2013-02-21 08:35:00,15.7,11.7,30.24,NE,44,11.0,14.0,84,0.00,,,0.00,Wunderground v.1.15,2013-02-21 14:35:00,
2013-02-21 08:40:00,15.6,11.6,30.23,NNE,33,12.0,12.0,84,0.00,,,0.00,Wunderground v.1.15,2013-02-21 14:40:00,
2013-02-21 08:46:00,15.6,11.6,30.24,NE,36,13.0,15.0,84,0.00,,,0.00,Wunderground v.1.15,2013-02-21 14:46:00,
2013-02-21 08:51:00,15.5,11.5,30.24,NE,43,13.0,13.0,84,0.00,,,0.00,Wunderground v.1.15,2013-02-21 14:51:00,
2013-02-21 08:57:00,15.6,11.6,30.24,NE,46,10.0,13.0,84,0.00,,,0.00,Wunderground v.1.15,2013-02-21 14:57:00,
2013-02-21 09:02:00,15.5,11.5,30.24,NE,44,10.0,13.0,84,0.00,,,0.00,Wunderground v.1.15,2013-02-21 15:02:00,
2013-02-21 09:08:00,15.4,11.4,30.24,NE,36,10.0,13.0,84,0.00,,,0.00,Wunderground v.1.15,2013-02-21 15:08:00,
2013-02-21 09:13:00,15.3,11.3,30.24,NE,40,11.0,14.0,84,0.00,,,0.00,Wunderground v.1.15,2013-02-21 15:13:00,
2013-02-21 09:18:00,15.3,11.3,30.24,NE,44,10.0,14.0,84,0.00,,,0.00,Wunderground v.1.15,2013-02-21 15:18:00,
2013-02-21 10:31:00,15.3,11.3,30.22,NNE,19,11.0,12.0,84,0.00,,,0.00,Wunderground v.1.15,2013-02-21 16:31:00,
2013-02-21 10:37:00,15.3,11.3,30.22,NNE,30,10.0,12.0,84,0.00,,,0.00,Wunderground v.1.15,2013-02-21 16:37:00,
2013-02-21 10:43:00,15.2,11.2,30.22,NNE,30,11.0,15.0,84,0.00,,,0.00,Wunderground v.1.15,2013-02-21 16:43:00,
2013-02-21 10:49:00,15.2,11.2,30.22,NNE,24,12.0,15.0,84,0.00,,,0.00,Wunderground v.1.15,2013-02-21 16:49:00,
2013-02-21 10:54:00,15.2,11.2,30.22,NNE,25,11.0,14.0,84,0.00,,,0.00,Wunderground v.1.15,2013-02-21 16:54:00,
2013-02-21 11:00:00,15.3,11.3,30.21,NNE,30,12.0,12.0,84,0.00,,,0.00,Wunderground v.1.15,2013-02-21 17:00:00,
2013-02-21 11:05:00,15.4,11.4,30.21,NNE,23,11.0,13.0,84,0.00,,,0.00,Wunderground v.1.15,2013-02-21 17:05:00,
2013-02-21 11:11:00,15.3,11.3,30.21,NNE,15,11.0,11.0,84,0.00,,,0.00,Wunderground v.1.15,2013-02-21 17:11:00,
2013-02-21 11:16:00,15.3,11.3,30.21,NNE,17,12.0,14.0,84,0.00,,,0.00,Wunderground v.1.15,2013-02-21 17:16:00,
2013-02-21 11:22:00,15.2,11.2,30.21,NNE,13,12.0,14.0,84,0.00,,,0.00,Wunderground v.1.15,2013-02-21 17:22:00,
2013-02-21 11:28:00,15.3,11.3,30.20,NNE,19,11.0,14.0,84,0.00,,,0.00,Wunderground v.1.15,2013-02-21 17:28:00,
2013-02-21 11:34:00,15.3,11.3,30.20,NNE,20,12.0,14.0,84,0.00,,,0.00,Wunderground v.1.15,2013-02-21 17:34:00,
2013-02-21 11:39:00,15.4,11.4,30.20,NNE,23,11.0,14.0,84,0.00,,,0.00,Wunderground v.1.15,2013-02-21 17:39:00,
2013-02-21 11:44:00,15.4,11.4,30.20,NNE,19,10.0,13.0,84,0.00,,,0.00,Wunderground v.1.15,2013-02-21 17:44:00,
2013-02-21 11:50:00,15.4,11.4,30.20,NNE,22,10.0,11.0,84,0.00,,,0.00,Wunderground v.1.15,2013-02-21 17:50:00,
2013-02-21 11:55:00,15.5,11.5,30.20,NNE,25,11.0,16.0,84,0.00,,,0.00,Wunderground v.1.15,2013-02-21 17:55:00,
2013-02-21 12:01:00,15.5,11.5,30.20,NNE,19,12.0,14.0,84,0.00,,,0.00,Wunderground v.1.15,2013-02-21 18:01:00,
2013-02-21 12:06:00,15.4,11.4,30.19,NNE,19,13.0,16.0,84,0.00,,,0.00,Wunderground v.1.15,2013-02-21 18:06:00,